Location: *
(50.3440°N, 18.6237°E)
Time: 12:30:41
(UTC+00:00)

USA 81 - Pass Details

Date: 30 November 2020
Orbit: 783 x 791 km, 85.0° (Epoch: 30 November)

Event Time Altitude Azimuth Distance (km) Brightness Sun altitude
Rises 16:12:57 0° 354° (N) 3,291 7.2 -13.3°
Reaches altitude 10° 16:15:19 10° 355° (N) 2,359 6.4 -13.7°
Maximum altitude 16:20:37 82° 83° (E) 802 4.0 -14.5°
Drops below altitude 10° 16:25:54 10° 172° (S) 2,346 6.6 -15.3°
Sets 16:28:15 0° 173° (S) 3,272 7.4 -15.7°
